CAPE
0 0 3 21 10 2 0 10 10 0 0 8 2 11 315 548 563 522 260 87 7 5 3 0 0 0 0 53 609 1006 1169 2150 1210 1439 1005 1239 1027 851 814 1157 1582 2302 2163 1950
0 0 0 0 0 0 74 1 21 0 0 1 12 0 60 389 481 450 518 307 83 16 16 21 0 0 0 15 566 1002 1344 2068 1560 1422 1000 1101 749 827 895 1322 1998 2075 2102 2248
0 0 0 0 0 0 0 2 0 1 0 0 2 0 0 510 408 516 483 577 372 60 23 103 57 129 58 14 358 974 1542 1815 1462 1399 1397 2032 2030 2286 1954 1951 1541 1723 2134 2405
0 0 0 0 0 0 0 0 0 0 0 0 1 13 51 268 478 362 480 518 476 439 126 219 209 243 302 142 197 1087 1682 2091 1485 1768 1440 1871 1259 1233 1376 2451 1439 1614 1995 2091
0 0 0 0 0 0 0 0 0 0 0 0 0 0 0 273 527 538 393 450 516 521 374 138 100 425 258 280 443 820 1636 2281 2165 1791 2076 2187 1875 1548 1836 1408 2028 1866 1982 2190
0 0 0 0 0 0 0 0 0 0 0 0 0 0 0 132 271 507 477 334 241 110 381 588 446 567 498 345 495 918 1719 2015 2411 2391 2007 2579 1810 2137 1605 1784 2028 1434 1984 1784
0 0 0 0 0 0 0 0 0 0 0 0 0 0 77 128 132 119 244 331 242 63 151 232 394 679 690 636 503 872 1970 2153 2297 2819 2422 2333 2872 2203 2582 3569 1853 1674 1409 1686
0 0 0 0 0 0 0 0 0 0 0 0 0 4 135 14 18 0 1 1 0 1 31 112 127 216 463 896 866 781 1965 2273 2508 2231 2851 2615 2712 2807 2575 2861 2045 1638 1436 1306
0 0 0 0 0 0 0 0 0 0 0 0 0 87 66 29 1 0 0 0 0 0 0 45 157 108 255 270 396 1069 1510 2289 2437 2433 2425 2776 2650 2741 2308 2517 3334 2429 2048 1648
0 0 0 0 0 0 0 0 0 0 0 0 0 0 92 119 19 0 0 0 0 0 0 0 0 87 205 233 339 739 1123 2267 2546 2487 2438 2533 2878 2837 2602 2781 2226 2546 2851 2187
0 0 0 0 0 0 0 0 0 0 0 0 0 78 168 216 2 0 0 0 0 0 0 0 0 0 2 37 78 807 1706 1946 2485 2492 2570 2708 2702 3036 3003 2578 2894 2765 2424 3424
0 0 0 0 0 0 0 0 0 0 0 0 0 0 69 28 4 0 0 0 0 0 0 0 0 0 0 105 261 522 1433 2004 2342 2415 2387 2792 2826 2891 3070 2979 2490 3135 2969 3034
0 0 0 0 0 0 0 0 0 0 0 0 0 0 44 0 0 0 0 0 0 0 0 0 0 4 90 170 574 677 1000 1653 1754 2564 2359 2484 2710 2820 2904 2925 3003 2406 2795 2895
0 0 0 0 0 0 0 0 0 0 0 0 0 0 27 9 0 0 0 0 0 0 0 0 0 245 49 39 285 702 752 801 1343 1451 2407 2429 2594 2596 2743 2758 3105 2994 2542 2750
0 0 0 0 0 0 0 0 0 0 0 0 0 0 0 0 0 1 1 0 0 1 1 1 0 79 7 3 105 344 506 834 961 1366 1538 2030 2630 2637 2694 2744 2709 2820 2630 2512
0 0 0 0 0 0 0 0 0 0 0 0 0 0 0 0 0 0 0 0 0 0 0 0 61 7 0 0 0 0 0 523 823 900 1645 1648 1831 2527 2769 2921 2613 2635 2764 2659
0 0 0 0 0 0 0 0 0 0 0 0 0 0 0 0 0 0 0 0 0 0 31 260 104 27 30 0 0 0 0 0 842 765 1188 1986 2084 1996 2763 2823 2984 3181 2511 2792
0 0 0 0 0 0 0 0 0 0 0 0 0 0 0 0 0 0 0 0 0 1 0 0 21 30 103 23 0 10 6 0 117 869 911 1772 2223 1813 1940 1781 2210 2417 2584 2650
0 0 0 0 1 2 10 0 0 0 0 0 0 0 0 0 1 2 0 34 17 46 37 5 3 14 109 106 222 5 100 132 81 560 927 1658 2166 1959 1817 1740 1887 1772 2422 2394
0 0 0 0 0 0 78 0 0 0 0 28 0 0 0 1 10 2 87 32 25 17 25 65 33 17 141 389 137 0 14 378 276 389 1194 1490 1631 1780 1888 2217 2201 2135 1949 1582
20 4 0 5 12 48 54 5 0 22 71 116 115 74 15 29 239 120 111 149 129 133 79 148 84 133 265 264 34 19 50 125 371 590 1266 1412 1864 1885 1799 1749 1472 1446 1267 1199
0 1 1 7 27 81 7 5 4 119 196 127 134 138 137 133 213 229 236 166 208 336 231 245 185 197 168 54 5 19 25 26 11 3 701 812 1600 1831 1943 1860 1613 1716 1510 1140
0 0 0 0 58 116 16 15 60 181 322 165 85 91 92 27 8 37 312 309 333 327 396 209 127 10 0 0 0 11 21 37 16 1 361 1126 1166 1268 1905 1971 1959 1792 1794 943
9 4 1 38 40 98 198 125 113 442 252 128 69 24 0 0 0 0 0 8 14 120 233 163 6 0 0 0 0 0 0 15 3 64 228 953 924 1208 1178 1270 1287 1350 1270 915
1 18 13 3 118 122 83 81 650 420 241 77 10 0 0 0 0 0 0 0 6 6 9 0 0 0 0 0 0 0 0 0 0 215 229 715 548 851 805 805 758 904 776 630
65 77 121 267 207 423 293 208 762 452 179 6 0 0 0 0 0 0 0 0 0 5 45 7 7 5 7 3 5 0 0 2 18 308 235 316 434 567 690 910 851 722 603 483
CIN
-0 -0 -0 -0 -1 -4 -3 -0 -0 -0 -0 -1 -45 -98 -7 -12 -9 -0 -18 -96 -225 -230 -230 -0 -0 -0 -0 -8 -5 -4 -5 -13 -15 -4 -4 -2 -3 -10 -9 -8 -70 -27 -9 -8
-0 -0 -0 -0 -0 -0 -2 -0 -0 -0 -0 -1 -69 -0 -26 -16 -20 -0 -1 -15 -112 -220 -229 -252 -0 -0 -0 -41 -17 -5 -3 -5 -5 -2 -7 -8 -12 -14 -12 -11 -23 -16 -7 -8
-0 -0 -0 -0 -0 -0 -0 -1 -0 -0 -0 -0 -0 -0 -0 -14 -10 -3 -1 -2 -4 -88 -185 -92 -187 -94 -81 -88 -44 -7 -4 -5 -7 -5 -6 -10 -12 -19 -32 -13 -21 -13 -16 -4
-0 -0 -0 -0 -0 -0 -0 -0 -0 -0 -0 -0 -0 -1 -54 -13 -0 -2 -2 -6 -20 -5 -73 -56 -71 -53 -39 -100 -102 -8 -3 -3 -6 -11 -7 -22 -7 -15 -17 -11 -17 -25 -14 -4
-0 -0 -0 -0 -0 -0 -0 -0 -0 -0 -0 -0 -0 -0 -0 -9 -5 -5 -9 -17 -5 -4 -16 -44 -98 -54 -50 -34 -63 -29 -14 -1 -2 -10 -15 -6 -5 -10 -8 -26 -28 -26 -38 -11
-0 -0 -0 -0 -0 -0 -0 -0 -0 -0 -0 -0 -0 -0 -0 -1 -12 -23 -90 -213 -85 -315 -0 -1 -37 -61 -58 -39 -25 -38 -32 -17 -3 -5 -17 -15 -14 -11 -7 -14 -7 -26 -21 -22
-0 -0 -0 -0 -0 -0 -0 -0 -0 -0 -0 -0 -0 -0 -5 -18 -14 -13 -33 -61 -86 -360 -17 -82 -16 -6 -58 -61 -39 -15 -45 -46 -27 -0 -3 -10 -3 -22 -21 -9 -17 -17 -18 -13
-0 -0 -0 -0 -0 -0 -0 -0 -0 -0 -0 -0 -0 -1 -18 -47 -38 -0 -4 -2 -0 -6 -32 -57 -7 -38 -4 -11 -33 -32 -46 -60 -49 -51 -1 -5 -8 -1 -5 -7 -9 -21 -18 -24
-0 -0 -0 -0 -0 -0 -0 -0 -0 -0 -0 -0 -0 -24 -45 -67 -11 -0 -0 -0 -0 -0 -0 -36 -26 -36 -22 -38 -13 -12 -32 -71 -71 -69 -55 -6 -4 -4 -9 -16 -11 -14 -31 -9
-0 -0 -0 -0 -0 -0 -0 -0 -0 -0 -0 -0 -0 -0 -5 -52 -77 -0 -0 -0 -0 -0 -0 -0 -0 -15 -28 -41 -42 -21 -10 -47 -66 -60 -64 -43 -8 -2 -6 -7 -33 -18 -13 -37
-0 -0 -0 -0 -0 -0 -0 -0 -0 -0 -0 -0 -0 -10 -68 -47 -33 -0 -0 -0 -0 -0 -0 -0 -0 -0 -108 -148 -165 -25 -48 -28 -52 -62 -51 -38 -22 -1 -1 -7 -5 -10 -22 -18
-0 -0 -0 -0 -0 -0 -0 -0 -0 -0 -0 -0 -0 -0 -34 -90 -36 -0 -0 -0 -0 -0 -0 -0 -0 -0 -0 -192 -166 -216 -165 -99 -37 -114 -74 -36 -26 -3 -0 -1 -10 -3 -8 -13
-0 -0 -0 -0 -0 -0 -0 -0 -0 -0 -0 -0 -0 -0 -10 -0 -0 -0 -0 -0 -0 -0 -0 -0 -0 -39 -151 -167 -144 -208 -216 -119 -93 -56 -78 -38 -29 -17 -0 -0 -1 -12 -8 -5
-0 -0 -0 -0 -0 -0 -0 -0 -0 -0 -0 -0 -0 -0 -8 -41 -0 -0 -0 -0 -0 -0 -0 -0 -0 -29 -203 -268 -168 -147 -240 -124 -148 -78 -33 -53 -34 -25 -18 -2 -6 -2 -9 -7
-0 -0 -0 -0 -0 -0 -0 -0 -0 -0 -0 -0 -0 -0 -0 -0 -0 -50 -25 -0 -0 -2 -0 -0 -0 -95 -212 -113 -164 -108 -155 -186 -83 -123 -58 -16 -46 -31 -12 -3 -8 -12 -7 -5
-0 -0 -0 -0 -0 -0 -0 -0 -0 -0 -0 -0 -0 -0 -0 -0 -0 -0 -0 -0 -0 -0 -0 -0 -95 -9 -0 -0 -0 -0 -0 -130 -51 -40 -52 -89 -53 -23 -24 -16 -18 -22 -18 -10
-0 -0 -0 -0 -0 -0 -0 -0 -0 -0 -0 -0 -0 -0 -0 -0 -0 -0 -0 -0 -0 -0 -35 -13 -53 -146 -87 -0 -0 -0 -0 -0 -30 -35 -69 -22 -57 -38 -32 -19 -18 -32 -18 -13
-0 -0 -0 -0 -0 -0 -0 -0 -0 -0 -0 -0 -0 -0 -0 -0 -0 -0 -0 -0 -0 -4 -0 -0 -6 -17 -36 -32 -0 -128 -93 -0 -129 -17 -56 -3 -3 -60 -56 -16 -14 -16 -25 -16
-0 -0 -0 -0 -0 -0 -1 -0 -0 -0 -0 -0 -0 -0 -0 -0 -4 -9 -0 -5 -28 -3 -0 -5 -6 -3 -21 -78 -8 -13 -65 -78 -117 -22 -3 -0 -0 -3 -50 -48 -25 -31 -17 -18
-0 -0 -0 -0 -0 -0 -20 -0 -0 -0 -0 -26 -1 -0 -0 -4 -7 -2 -15 -31 -25 -20 -4 -0 -1 -1 -76 -8 -25 -0 -24 -1 -32 -19 -0 -1 -4 -4 -7 -14 -16 -11 -4 -13
-1 -0 -0 -0 -0 -1 -26 -29 -0 -19 -9 -44 -50 -43 -52 -50 -0 -5 -3 -0 -0 -1 -3 -1 -2 -43 -25 -38 -65 -97 -114 -68 -22 -8 -0 -0 -0 -0 -5 -19 -43 -27 -22 -31
-0 -0 -0 -0 -0 -5 -25 -16 -6 -8 -28 -46 -57 -41 -20 -3 -0 -1 -1 -4 -3 -0 -3 -1 -14 -14 -17 -4 -1 -0 -0 -77 -0 -0 -2 -11 -0 -0 -1 -2 -11 -5 -1 -6
-0 -0 -0 -0 -3 -4 -19 -5 -7 -15 -32 -52 -49 -39 -42 -111 -16 -155 -0 -0 -0 -0 -0 -3 -3 -0 -0 -0 -0 -0 -0 -0 -0 -13 -39 -0 -0 -3 -0 -0 -0 -1 -0 -11
-2 -0 -0 -9 -2 -28 -7 -1 -5 -6 -40 -44 -32 -51 -0 -0 -0 -0 -0 -0 -18 -0 -0 -0 -6 -0 -0 -0 -0 -0 -0 -0 -0 -151 -36 -0 -0 -0 -5 -1 -1 -4 -0 -0
-0 -5 -0 -1 -18 -58 -21 -40 -8 -16 -30 -39 -0 -0 -0 -0 -0 -0 -0 -0 -14 -0 -0 -0 -0 -0 -0 -0 -0 -0 -0 -0 -0 -15 -14 -0 -3 -0 -14 -11 -5 -0 -1 -0
-9 -6 -0 -0 -1 -3 -2 -2 -19 -9 -33 -0 -0 -0 -0 -0 -0 -0 -0 -0 -0 -0 -5 -0 -0 -0 -0 -0 -0 -0 -0 -0 -90 -0 -7 -2 -0 -0 -3 -2 -1 -0 -0 -3
Wind_Speed
nan nan nan nan nan nan nan nan nan nan nan nan nan nan 16 15 14 16 18 nan nan nan nan nan nan nan nan nan 10 5 6 10 9 12 9 9 10 11 19 16 15 8 8 8
nan nan nan nan nan nan nan nan nan nan nan nan nan nan nan 15 15 14 17 17 nan nan nan nan nan nan nan nan 13 10 5 8 8 9 10 10 10 10 15 16 15 10 8 7
nan nan nan nan nan nan nan nan nan nan nan nan nan nan nan 21 14 18 23 24 21 nan nan 20 nan 19 nan nan 15 13 9 11 8 6 9 10 15 18 22 17 16 12 9 8
nan nan nan nan nan nan nan nan nan nan nan nan nan nan nan 25 25 15 18 26 25 25 24 26 22 17 17 20 18 15 12 13 10 4 8 12 12 17 20 21 16 12 8 6
nan nan nan nan nan nan nan nan nan nan nan nan nan nan nan 29 21 33 31 23 13 32 23 26 27 21 15 16 20 19 17 11 9 8 5 10 9 14 19 17 16 16 11 8
nan nan nan nan nan nan nan nan nan nan nan nan nan nan nan 18 30 27 31 32 12 18 8 23 26 29 22 15 18 21 22 18 12 11 7 6 11 12 17 15 16 17 16 11
nan nan nan nan nan nan nan nan nan nan nan nan nan nan nan 35 47 48 35 27 37 nan 18 13 22 23 26 22 18 19 25 22 20 15 12 10 11 11 14 20 19 21 16 14
nan nan nan nan nan nan nan nan nan nan nan nan nan nan 31 nan nan nan nan nan nan nan nan 39 37 19 18 22 22 19 21 25 22 20 17 16 13 16 17 19 21 22 22 17
nan nan nan nan nan nan nan nan nan nan nan nan nan nan nan nan nan nan nan nan nan nan nan nan 41 45 38 23 23 18 22 20 25 24 23 20 20 16 18 20 23 25 24 24
nan nan nan nan nan nan nan nan nan nan nan nan nan nan nan 45 nan nan nan nan nan nan nan nan nan nan 38 36 31 28 15 26 23 25 25 26 25 21 19 23 22 24 27 25
nan nan nan nan nan nan nan nan nan nan nan nan nan nan 36 41 nan nan nan nan nan nan nan nan nan nan nan nan nan 35 31 23 23 24 25 26 27 27 23 20 21 23 26 28
nan nan nan nan nan nan nan nan nan nan nan nan nan nan nan nan nan nan nan nan nan nan nan nan nan nan nan 47 46 45 40 39 32 25 25 26 27 28 29 24 21 25 24 26
nan nan nan nan nan nan nan nan nan nan nan nan nan nan nan nan nan nan nan nan nan nan nan nan nan nan nan 49 51 50 47 47 48 32 28 29 28 29 25 26 27 26 28 26
nan nan nan nan nan nan nan nan nan nan nan nan nan nan nan nan nan nan nan nan nan nan nan nan nan 51 nan nan 44 55 55 53 52 50 32 30 30 29 28 29 31 31 30 30
nan nan nan nan nan nan nan nan nan nan nan nan nan nan nan nan nan nan nan nan nan nan nan nan nan nan nan nan 44 41 54 58 58 51 47 31 33 33 33 34 33 37 34 31
nan nan nan nan nan nan nan nan nan nan nan nan nan nan nan nan nan nan nan nan nan nan nan nan nan nan nan nan nan nan nan 48 57 56 47 45 37 33 37 37 37 26 33 32
nan nan nan nan nan nan nan nan nan nan nan nan nan nan nan nan nan nan nan nan nan nan nan 60 59 nan nan nan nan nan nan nan 44 49 49 48 51 39 38 37 36 36 31 34
nan nan nan nan nan nan nan nan nan nan nan nan nan nan nan nan nan nan nan nan nan nan nan nan nan nan 52 nan nan nan nan nan 40 38 42 45 46 51 45 34 34 33 38 38
nan nan nan nan nan nan nan nan nan nan nan nan nan nan nan nan nan nan nan nan nan nan nan nan nan nan 53 53 54 nan 47 43 nan 38 38 37 39 45 51 46 39 37 44 39
nan nan nan nan nan nan nan nan nan nan nan nan nan nan nan nan nan nan nan nan nan nan nan nan nan nan 60 56 56 nan nan 48 43 41 39 40 38 39 44 45 44 50 57 41
nan nan nan nan nan nan nan nan nan nan nan 36 30 nan nan nan 41 34 33 35 39 45 nan 56 nan 62 62 64 nan nan nan 49 49 49 45 44 37 35 37 44 47 48 48 54
nan nan nan nan nan nan nan nan nan 41 31 32 38 39 37 41 38 34 33 36 35 35 36 48 58 61 62 nan nan nan nan nan nan nan 43 43 41 39 40 40 46 46 46 44
nan nan nan nan nan 25 nan nan nan 40 38 40 nan nan nan nan nan nan 31 38 45 47 52 55 55 nan nan nan nan nan nan nan nan nan 43 42 50 53 44 44 44 49 46 51
nan nan nan nan nan nan 27 31 40 36 38 38 nan nan nan nan nan nan nan nan nan 46 55 60 nan nan nan nan nan nan nan nan nan nan 44 48 56 58 57 57 54 57 54 55
nan nan nan nan 32 28 nan nan 47 41 40 nan nan nan nan nan nan nan nan nan nan nan nan nan nan nan nan nan nan nan nan nan nan 44 47 49 55 61 62 59 57 61 62 61
nan nan 21 16 32 22 27 39 44 43 36 nan nan nan nan nan nan nan nan nan nan nan nan nan nan nan nan nan nan nan nan nan nan 58 55 47 50 55 60 62 62 67 63 62
Wind_Direction
nan nan nan nan nan nan nan nan nan nan nan nan nan nan 332 343 10 356 358 nan nan nan nan nan nan nan nan nan 301 244 256 253 249 247 229 226 233 205 187 202 244 240 209 186
nan nan nan nan nan nan nan nan nan nan nan nan nan nan nan 336 348 353 346 341 nan nan nan nan nan nan nan nan 308 299 269 264 261 233 235 227 241 229 199 204 234 247 214 218
nan nan nan nan nan nan nan nan nan nan nan nan nan nan nan 319 330 341 328 334 340 nan nan 331 nan 333 nan nan 326 311 303 298 283 252 243 233 243 216 199 215 233 233 243 201
nan nan nan nan nan nan nan nan nan nan nan nan nan nan nan 338 322 307 324 320 325 330 324 319 326 328 329 321 323 320 314 306 301 296 271 260 238 215 209 205 227 238 243 239
nan nan nan nan nan nan nan nan nan nan nan nan nan nan nan 316 313 334 333 286 308 320 313 321 320 321 328 319 316 318 314 308 305 301 261 271 246 224 219 215 207 245 250 252
nan nan nan nan nan nan nan nan nan nan nan nan nan nan nan 300 245 265 258 275 244 228 138 321 316 311 314 319 307 308 313 309 296 293 297 258 267 215 225 237 233 240 252 258
nan nan nan nan nan nan nan nan nan nan nan nan nan nan nan 264 275 264 268 276 291 nan 328 297 216 311 299 307 309 300 307 307 309 296 287 277 255 247 218 227 236 257 250 260
nan nan nan nan nan nan nan nan nan nan nan nan nan nan 238 nan nan nan nan nan nan nan nan 246 247 246 266 295 298 297 301 302 305 308 297 276 260 250 243 236 240 240 257 258
nan nan nan nan nan nan nan nan nan nan nan nan nan nan nan nan nan nan nan nan nan nan nan nan 235 239 248 230 230 281 287 300 299 298 295 291 278 256 248 252 247 249 245 251
nan nan nan nan nan nan nan nan nan nan nan nan nan nan nan 292 nan nan nan nan nan nan nan nan nan nan 242 239 234 226 270 287 297 294 289 282 282 279 261 247 254 255 252 253
nan nan nan nan nan nan nan nan nan nan nan nan nan nan 247 247 nan nan nan nan nan nan nan nan nan nan nan nan nan 233 232 217 292 290 286 281 276 275 271 265 254 253 254 254
nan nan nan nan nan nan nan nan nan nan nan nan nan nan nan nan nan nan nan nan nan nan nan nan nan nan nan 231 233 236 237 231 280 288 285 283 276 273 273 272 268 263 257 258
nan nan nan nan nan nan nan nan nan nan nan nan nan nan nan nan nan nan nan nan nan nan nan nan nan nan nan 236 239 237 233 238 239 272 283 284 279 278 277 274 271 267 266 264
nan nan nan nan nan nan nan nan nan nan nan nan nan nan nan nan nan nan nan nan nan nan nan nan nan 252 nan nan 232 235 236 236 238 239 274 281 281 279 281 272 266 268 264 267
nan nan nan nan nan nan nan nan nan nan nan nan nan nan nan nan nan nan nan nan nan nan nan nan nan nan nan nan 241 236 234 235 238 239 241 247 277 277 274 273 279 272 268 264
nan nan nan nan nan nan nan nan nan nan nan nan nan nan nan nan nan nan nan nan nan nan nan nan nan nan nan nan nan nan nan 234 237 237 238 246 241 267 279 274 279 286 277 275
nan nan nan nan nan nan nan nan nan nan nan nan nan nan nan nan nan nan nan nan nan nan nan 255 253 nan nan nan nan nan nan nan 239 238 237 238 245 249 265 275 278 275 276 276
nan nan nan nan nan nan nan nan nan nan nan nan nan nan nan nan nan nan nan nan nan nan nan nan nan nan 246 nan nan nan nan nan 239 242 239 238 242 244 258 259 261 264 270 273
nan nan nan nan nan nan nan nan nan nan nan nan nan nan nan nan nan nan nan nan nan nan nan nan nan nan 247 244 244 nan 237 242 nan 240 245 244 243 248 248 255 261 266 258 256
nan nan nan nan nan nan nan nan nan nan nan nan nan nan nan nan nan nan nan nan nan nan nan nan nan nan 245 246 243 nan nan 239 243 241 242 245 243 249 253 257 254 254 265 270
nan nan nan nan nan nan nan nan nan nan nan 268 269 nan nan nan 281 263 255 255 259 255 nan 246 nan 248 245 244 nan nan nan 236 234 234 237 240 246 255 256 258 257 260 267 271
nan nan nan nan nan nan nan nan nan 270 269 267 260 261 268 278 274 266 263 260 259 258 254 254 252 248 249 nan nan nan nan nan nan nan 235 239 243 254 261 265 264 264 269 265
nan nan nan nan nan 267 nan nan nan 283 274 269 nan nan nan nan nan nan 256 254 253 251 257 255 249 nan nan nan nan nan nan nan nan nan 231 239 249 252 253 261 266 269 268 267
nan nan nan nan nan nan 256 259 271 282 274 275 nan nan nan nan nan nan nan nan nan 259 254 252 nan nan nan nan nan nan nan nan nan nan 234 248 252 255 254 252 254 261 265 269
nan nan nan nan 289 282 nan nan 288 288 283 nan nan nan nan nan nan nan nan nan nan nan nan nan nan nan nan nan nan nan nan nan nan 235 243 242 249 255 255 253 251 256 257 259
nan nan 306 270 271 286 277 279 284 282 280 nan nan nan nan nan nan nan nan nan nan nan nan nan nan nan nan nan nan nan nan nan nan 237 236 242 249 254 257 259 257 248 254 258